Date,TemperatureHighF,TemperatureAvgF,TemperatureLowF,DewpointHighF,DewpointAvgF,DewpointLowF,HumidityHigh,HumidityAvg,HumidityLow,PressureMaxIn,PressureMinIn,WindSpeedMaxMPH,WindSpeedAvgMPH,GustSpeedMaxMPH,PrecipitationSumIn
2013-9-1,113.8,89.0,74.2,65.5,61.2,56.1,69,43,19,27.30,27.17,10,2,10,0.00
2013-9-2,112.9,87.2,74.3,66.0,59.2,51.9,64,41,17,27.36,27.17,7,2,7,0.00
2013-9-3,119.9,85.2,74.9,65.4,59.3,52.8,60,44,14,27.31,27.22,13,2,13,0.00
2013-9-4,123.3,89.6,72.4,61.1,53.8,45.3,62,35,11,27.33,27.21,10,2,10,0.00
2013-9-5,117.7,91.8,76.0,55.8,50.2,45.1,49,27,11,27.32,27.21,8,3,13,0.00
2013-9-6,115.6,88.4,75.4,60.3,54.6,49.6,53,34,14,27.33,27.20,8,2,8,0.00
2013-9-7,101.2,81.2,72.7,64.9,61.7,57.9,73,53,30,27.35,27.22,10,2,10,0.00
2013-9-8,89.5,77.6,71.8,67.1,63.8,60.6,83,63,41,27.26,27.16,8,2,8,0.05
2013-9-9,104.9,77.6,63.7,74.0,66.0,60.1,90,70,31,27.22,27.10,9,1,9,0.67
2013-9-10,103.5,77.1,63.5,69.2,60.9,52.6,92,62,26,27.29,27.17,7,1,7,0.01
2013-9-11,108.7,80.9,66.1,62.9,58.1,51.8,84,52,20,27.34,27.22,9,2,9,0.00
2013-9-12,114.1,84.1,68.2,62.2,56.8,48.2,69,44,17,27.27,27.11,10,2,10,0.00
2013-9-13,121.5,89.5,74.3,65.0,59.0,48.4,69,42,11,27.18,27.02,9,2,9,0.00
2013-9-14,123.8,90.8,75.8,64.3,57.1,48.2,61,37,12,27.13,27.02,9,3,9,0.00
2013-9-15,128.2,91.1,74.5,60.5,55.8,48.1,56,35,11,27.18,27.09,10,2,10,0.00
2013-9-16,121.9,92.1,77.2,60.7,56.5,48.3,51,33,11,27.23,27.11,11,3,11,0.00
2013-9-17,126.2,94.2,80.6,60.9,55.0,45.1,45,30,9,27.20,27.04,11,3,11,0.00
2013-9-18,120.2,91.5,76.0,56.3,46.2,40.2,50,24,7,27.17,27.04,6,2,6,0.00
2013-9-19,123.8,89.0,71.6,53.4,46.5,37.7,45,26,9,27.17,27.06,7,2,7,0.00
2013-9-20,119.9,86.8,70.2,56.7,47.4,35.8,46,28,11,27.22,27.12,14,2,14,0.00
2013-9-21,114.1,87.1,73.8,60.8,54.8,50.1,53,36,14,27.23,27.05,7,3,10,0.00
2013-9-22,103.0,84.0,69.5,62.7,52.4,35.4,55,36,19,27.14,27.01,12,3,12,0.00
2013-9-23,112.9,80.5,60.1,49.0,36.6,29.0,44,24,6,27.27,27.14,5,1,6,0.00
2013-9-24,120.2,83.7,62.6,49.0,35.9,23.2,38,21,6,27.32,27.16,4,1,6,0.00
2013-9-25,105.8,81.6,65.0,37.6,29.6,20.6,29,16,7,27.21,27.05,11,2,11,0.00
2013-9-26,103.3,80.9,63.9,54.6,36.8,20.3,51,23,11,27.12,26.99,16,3,16,0.00
2013-9-27,94.7,75.1,62.3,58.5,43.8,23.0,63,36,17,27.21,27.05,10,2,10,0.00
2013-9-28,109.1,76.5,55.4,42.5,33.6,23.0,37,23,10,27.27,27.14,8,1,8,0.00
2013-9-29,114.5,79.7,60.5,48.5,37.6,32.1,44,25,7,27.24,27.09,6,1,6,0.00
2013-9-30,114.8,79.7,59.6,45.0,33.6,24.9,39,22,5,27.14,26.96,7,1,7,0.00